Miscellaneous Local Product
Issued by NWS North Platte, NE

Home | Current Version | Previous Version | Text Only | Print | Product List | Glossary On
Versions: 1 2 3 4 5 6 7 8 9 10 11 12 13 14 15 16 17 18 19 20 21 22 23 24 25 26 27 28 29 30 31 32 33 34 35 36 37 38 39 40 41 42 43 44 45 46 47 48 49 50
000
AXUS43 KLBF 280710
MISLBF


WESTERN AND NORTH CENTRAL NEBRASKA HOURLY WEATHER ROUNDUP
NATIONAL WEATHER SERVICE NORTH PLATTE NE
200 AM CDT THU MAY 28 2015

***STATIONS NOT REPORTING VARIABLES SUCH AS SKY/WEATHER OR
PRESSURE ARE PROVIDED BY THE NEBRASKA DEPARTMENT OF
ROADS...RAWS...AND APRS NETWORKS...AND ARE NOT UNDER
NATIONAL WEATHER SERVICE QUALITY CONTROL***

...OBSERVATIONS IN AND NEAR THE EASTERN PANHANDLE OF NEBRASKA...

CITY           SKY/WX    TMP DP  RH WIND       PRES   REMARKS
PINE RIDGE     MOCLDY    60  53  77 S22G32    29.97S
CHADRON        CLOUDY    59  53  80 SW9       29.98R
ALLIANCE       CLOUDY    59  52  77 S18       30.00F
SIDNEY         LGT RAIN  57  54  89 E7        30.09F
WHITECLAY        N/A     60  52  75 S20         N/A
BIG SPRINGS      N/A     57  54  91 S5          N/A
$$

...OBSERVATIONS IN NORTH CENTRAL NEBRASKA...

CITY           SKY/WX    TMP DP  RH WIND       PRES   REMARKS
VALENTINE      CLEAR     60  55  83 SW13      29.98F
THEDFORD       CLEAR     56  55  94 CALM      30.03S
AINSWORTH      PTCLDY    59  55  86 S7        30.00F
O`NEILL        CLEAR     60  54  81 SE5       30.02F
ORD            PTCLDY    58  55  90 CALM      30.01S
BROKEN BOW     PTCLDY    58  55  90 SE6       30.02F
BROWNLEE         N/A     60  57  88 S12         N/A
VALENTINE NWR    N/A     58  58  99 S7          N/A
SPRINGVIEW       N/A     64  56  77 CALM        N/A
BREWSTER         N/A     59  58  95 S5          N/A
ROSE             N/A     61  60  96 E10         N/A
NEWPORT          N/A     65  59  81 S8          N/A
SARGENT          N/A     60  57  91 CALM        N/A
COMSTOCK         N/A     66  63  90 S7          N/A
EWING            N/A     63  55  76 CALM        N/A
$$

...OBSERVATIONS IN SOUTHWEST NEBRASKA AND FAR NORTHEAST COLORADO...

CITY           SKY/WX    TMP DP  RH WIND       PRES   REMARKS
WRAY           CLOUDY    61  56  85 SE6       30.05F
HOLYOKE        FAIR      55  52  88 S5        30.05S
IMPERIAL       MOCLDY    56  53  90 S7        30.03S
OGALLALA       PTCLDY    56  54  92 W6        30.04S
NORTH PLATTE   MOCLDY    60  55  83 S3        30.02S
MCCOOK         CLOUDY    58  53  84 S7        30.00F
LEXINGTON      MOCLDY    60  58  93 E5        30.02S
PAXTON           N/A     58  55  90 S5          N/A
GOTHENBURG       N/A     60  55  85 E3          N/A
CALLAWAY         N/A     57  55  94 S5          N/A
$$

...NORTH PLATTE AREA...

CITY           SKY/WX    TMP DP  RH WIND       PRES   REMARKS
AIRPORT        MOCLDY    60  55  83 S3        30.02S
DOWNTOWN         N/A     60  55  85 CALM        N/A
$$

...SOME WEATHER OBSERVATIONS FROM AROUND THE REGION...

CITY           SKY/WX    TMP DP  RH WIND       PRES   REMARKS
DENVER         PTCLDY    58  43  57 W8        30.05F
LARAMIE        PTCLDY    45  38  76 SW10      30.14F
CHEYENNE       PTCLDY    53  51  93 SE5       30.10S
SCOTTSBLUFF    CLOUDY    59  54  83 W3        30.04R
RAPID CITY     PTCLDY    53  52  96 SE3       29.93F
PIERRE         CLOUDY    62  58  86 S6        29.92F
WINNER         FAIR      64  54  69 S9        29.96F
SIOUX FALLS    MOCLDY    65  50  58 S10       30.03S
OMAHA          CLOUDY    64  54  69 SE3       30.07S
GRAND ISLAND   PTCLDY    64  57  78 SE7       30.03F
KANSAS CITY    MOCLDY    67  56  67 SE8       30.10R
WICHITA        CLOUDY    71  67  87 S7        30.02F THUNDER
HAYS           CLOUDY    61  52  72 S9        30.01F
LIBERAL        CLOUDY    63  55  77 E13       30.04S
GOODLAND       PTCLDY    56  54  93 S18       30.03F
$$



USA.gov is the U.S. government's official web portal to all federal, state and local government web resources and services.